Weather History for Tarbes, France

Change the Weather History Date:

Friday, October 5, 2012

  Actual Average Record
Temperature  
Mean Temperature 66 °F -  
Max Temperature 83 °F 62 °F 83 °F (2012)
Min Temperature 48 °F 44 °F 41 °F (1999)
Growing Degree Days 16 (Base 50)    
Moisture  
Dew Point 50 °F    
Average Humidity 64    
Maximum Humidity 94    
Minimum Humidity 26    
Precipitation  
Precipitation 0.00 in - - ()
Sea Level Pressure  
Sea Level Pressure 30.04 in    
Wind  
Wind Speed 3 mph ()    
Max Wind Speed 8 mph    
Max Gust Speed -    
Visibility 6.2 miles    
Events      
Averages and records for this station are not official NWS values.
T = Trace of Precipitation, MM = Missing Value Source: Averaged Metar Reports

Daily Weather History Graph

Daily Weather History Graph

Search for Another Location

Airport:

Trip Planner

Search our weather history database for the weather conditions in past years. The results will help you decide how hot, cold, wet, or windy it might be!

Date:

Astronomy

Oct. 05, 2012 Rise Set
Actual Time 8:02 AM CEST 7:33 PM CEST
Civil Twilight 7:33 AM CEST 8:02 PM CEST
Nautical Twilight 7:00 AM CEST 8:34 PM CEST
Astronomical Twilight 6:27 AM CEST 9:08 PM CEST
Moon 10:37 PM CEST (10/5) 1:05 PM CEST (10/5)
Length of Visible Light 12h 28m
Length of Day
11h 31m
Waning Gibbous, 76% of the Moon is Illuminated
Oct 5
Waning Gibbous
Oct 8
Last Quarter
Oct 15
New
Oct 22
First Quarter
Oct 29
Full

Hourly Weather History & Observations

Time (CEST) Temp. Dew Point Humidity Pressure Visibility Wind Dir Wind Speed Gust Speed Precip Events Conditions
12:30 AM 51.8 °F 50.0 °F 94% 30.06 in - Calm Calm - N/A   Mist
1:00 AM 51.8 °F 50.0 °F 94% 30.06 in 6.2 mi Variable 1.2 mph - N/A   Unknown
1:30 AM 51.8 °F 48.2 °F 88% 30.06 in 6.2 mi SSW 3.5 mph - N/A   Unknown
2:30 AM 51.8 °F 50.0 °F 94% 30.06 in 6.2 mi South 3.5 mph - N/A   Unknown
3:00 AM 51.8 °F 50.0 °F 94% 30.06 in 6.2 mi SSE 4.6 mph - N/A   Unknown
3:30 AM 51.8 °F 50.0 °F 94% 30.06 in 6.2 mi Variable 3.5 mph - N/A   Unknown
4:00 AM 51.8 °F 50.0 °F 94% 30.04 in 6.2 mi SSE 3.5 mph - N/A   Unknown
4:30 AM 48.2 °F 46.4 °F 93% 30.04 in 6.2 mi South 3.5 mph - N/A   Unknown
5:00 AM 48.2 °F 46.4 °F 93% 30.04 in 6.2 mi South 3.5 mph - N/A   Unknown
5:30 AM 48.2 °F 46.4 °F 93% 30.04 in 6.2 mi South 4.6 mph - N/A   Unknown
6:00 AM 48.2 °F 46.4 °F 93% 30.04 in 6.2 mi South 4.6 mph - N/A   Unknown
6:30 AM 48.2 °F 46.4 °F 93% 30.04 in 6.2 mi South 3.5 mph - N/A   Unknown
7:00 AM 48.2 °F 46.4 °F 93% 30.04 in 6.2 mi South 3.5 mph - N/A   Unknown
7:30 AM 48.2 °F 46.4 °F 93% 30.04 in 6.2 mi South 4.6 mph - N/A   Unknown
8:30 AM 48.2 °F 46.4 °F 93% 30.04 in 6.2 mi Variable 2.3 mph - N/A   Unknown
9:00 AM 51.8 °F 50.0 °F 94% 30.04 in 6.2 mi SSW 3.5 mph - N/A   Unknown
9:30 AM 57.2 °F 51.8 °F 82% 30.04 in 6.2 mi Variable 2.3 mph - N/A   Unknown
10:00 AM 60.8 °F 51.8 °F 72% 30.04 in 6.2 mi Variable 2.3 mph - N/A   Unknown
10:30 AM 66.2 °F 53.6 °F 64% 30.04 in 6.2 mi Variable 2.3 mph - N/A   Unknown
11:00 AM 69.8 °F 50.0 °F 49% 30.06 in 6.2 mi Variable 1.2 mph - N/A   Unknown
11:30 AM 73.4 °F 53.6 °F 50% 30.04 in 6.2 mi Calm Calm - N/A   Unknown
12:00 PM 75.2 °F 53.6 °F 47% 30.04 in 6.2 mi Variable 1.2 mph - N/A   Unknown
12:30 PM 77.0 °F 51.8 °F 41% 30.04 in 6.2 mi Variable 2.3 mph - N/A   Unknown
1:00 PM 78.8 °F 50.0 °F 36% 30.04 in 6.2 mi Variable 2.3 mph - N/A   Unknown
1:30 PM 78.8 °F 50.0 °F 36% 30.04 in 6.2 mi Variable 2.3 mph - N/A   Unknown
2:00 PM 80 °F 51 °F 26% 29.98 in 28 mi North 3.5 mph - -   Clear
2:00 PM 80.6 °F 51.8 °F 37% 30.04 in 6.2 mi North 3.5 mph - N/A   Unknown
2:30 PM 80.6 °F 48.2 °F 32% 30.01 in 6.2 mi Variable 4.6 mph - N/A   Unknown
3:00 PM 82.4 °F 46.4 °F 28% 30.01 in 6.2 mi Variable 2.3 mph - N/A   Unknown
3:30 PM 82.4 °F 46.4 °F 28% 30.01 in 6.2 mi NNE 4.6 mph - N/A   Unknown
4:00 PM 82.4 °F 48.2 °F 30% 30.01 in 6.2 mi Variable 4.6 mph - N/A   Unknown
4:30 PM 82.4 °F 48.2 °F 30% 30.01 in 6.2 mi Variable 3.5 mph - N/A   Unknown
5:00 PM 82.4 °F 46.4 °F 28% 30.01 in 6.2 mi North 4.6 mph - N/A   Unknown
5:30 PM 82.4 °F 48.2 °F 30% 30.01 in 6.2 mi NNW 5.8 mph - N/A   Unknown
6:00 PM 80.6 °F 48.2 °F 32% 30.01 in 6.2 mi NNW 6.9 mph - N/A   Unknown
6:30 PM 78.8 °F 50.0 °F 36% 30.01 in 6.2 mi NNW 5.8 mph - N/A   Unknown
7:00 PM 77.0 °F 51.8 °F 41% 30.01 in 6.2 mi WNW 3.5 mph - N/A   Unknown
7:30 PM 68.0 °F 55.4 °F 64% 30.04 in 6.2 mi SSW 5.8 mph - N/A   Unknown
8:00 PM 65 °F 54 °F 60% 30.01 in 37 mi South 4.6 mph - -   Clear
8:00 PM 64.4 °F 53.6 °F 68% 30.04 in 6.2 mi South 4.6 mph - N/A   Unknown
8:30 PM 66.2 °F 55.4 °F 68% 30.04 in 6.2 mi SSE 5.8 mph - N/A   Unknown
9:00 PM 66.2 °F 53.6 °F 64% 30.04 in 6.2 mi South 6.9 mph - N/A   Unknown
9:30 PM 64.4 °F 51.8 °F 64% 30.06 in 6.2 mi South 8.1 mph - N/A   Unknown
10:00 PM 62.6 °F 51.8 °F 68% 30.06 in 6.2 mi South 6.9 mph - N/A   Unknown
10:30 PM 64.4 °F 51.8 °F 64% 30.06 in 6.2 mi SSE 8.1 mph - N/A   Unknown
11:00 PM 62.6 °F 51.8 °F 68% 30.06 in 6.2 mi South 5.8 mph - N/A   Unknown
11:30 PM 60.8 °F 50.0 °F 68% 30.06 in 6.2 mi South 4.6 mph - N/A   Unknown